Date String (YYYY-MM-DD hh:mm:ss) UTC,Instrument flags,absolute air pressure of the measurement (hPa),sample flow rate (lpm),inlet stack bypass flow (lpm),air temperature of the measurement (°C),ambient temperature measured by the external sensor (°C),aerosol sample conditioner tube jacket temperature (°C),OPC LED temperature (°C),internal box temperature (°C),relative humidity of the measurement (%),span deviation,mass concentration of particles derived from Lorenz-Mie calculation of OPC scattering (μg/m³),mass concentration of particles derived from Lorenz-Mie calculation of OPC scattering (μg/m³),mass concentration of particles derived from Lorenz-Mie calculation of OPC scattering (μg/m³)
DateTimeUTC,F1_M11,P_M11,Q1_M11,Q2_M11,T1_M11,T2_M11,T3_M11,T4_M11,T5_M11,U1_M11,ZSPAN_M11,X0_M11,X2_M11,X1_M11
2024-04-17 07:00:00,SystemResetWarning,0825.7,5.00,000.00,026.0,025.2,000.0,034.5,027.9,013.4,0000.0,0008.13,0002.90,0001.92
2024-04-17 07:01:00,SystemResetWarning,0825.7,5.00,000.00,026.0,025.2,000.0,034.5,027.8,013.5,0000.0,0008.26,0002.96,0001.92
2024-04-17 07:02:00,SystemResetWarning,0825.7,5.00,000.00,026.0,025.2,000.0,034.5,027.8,013.5,0000.0,0008.32,0003.00,0001.95
2024-04-17 07:03:00,SystemResetWarning,0825.7,5.00,000.00,026.0,025.1,000.0,034.5,027.8,013.8,0000.0,0008.24,0003.01,0001.94
2024-04-17 07:04:00,SystemResetWarning,0825.6,5.00,000.00,026.0,025.1,000.0,034.5,027.8,013.8,0000.0,0008.14,0002.96,0001.94
2024-04-17 07:05:00,SystemResetWarning,0825.5,5.01,000.00,026.0,025.1,000.0,034.5,027.8,013.7,0000.0,0007.31,0002.96,0001.95
2024-04-17 07:06:00,SystemResetWarning,0825.6,5.00,000.00,026.0,025.1,000.0,034.5,027.8,013.3,0000.0,0006.13,0002.93,0001.94
2024-04-17 07:07:00,SystemResetWarning,0825.6,5.00,000.00,026.0,025.0,000.0,034.5,027.8,013.7,0000.0,0005.14,0002.87,0001.94
2024-04-17 07:08:00,SystemResetWarning,0825.6,5.00,000.00,026.0,025.0,000.0,034.5,027.8,013.5,0000.0,0005.98,0002.83,0001.93
2024-04-17 07:09:00,SystemResetWarning,0825.6,5.00,000.00,026.0,025.0,000.0,034.5,027.8,013.4,0000.0,0006.78,0002.85,0001.93
2024-04-17 07:10:00,SystemResetWarning,0825.7,5.00,000.00,026.0,025.0,000.0,034.5,027.7,013.8,0000.0,0006.73,0002.87,0001.92
2024-04-17 07:11:00,SystemResetWarning,0825.7,4.99,000.00,025.9,025.0,000.0,034.5,027.7,013.8,0000.0,0006.95,0002.87,0001.91
2024-04-17 07:12:00,SystemResetWarning,0825.7,4.99,000.00,025.9,025.0,000.0,034.5,027.7,013.7,0000.0,0007.17,0002.91,0001.91
2024-04-17 07:13:00,SystemResetWarning,0825.7,5.01,000.00,025.9,025.0,000.0,034.5,027.7,013.8,0000.0,0007.26,0002.93,0001.89
2024-04-17 07:14:00,SystemResetWarning,0825.7,5.00,000.00,025.9,025.0,000.0,034.5,027.7,013.9,0000.0,0007.24,0002.90,0001.89
2024-04-17 07:15:00,SystemResetWarning,0825.7,5.00,000.00,025.9,025.0,000.0,034.4,027.7,014.0,0000.0,0007.28,0002.87,0001.89
2024-04-17 07:16:00,SystemResetWarning,0825.6,5.00,000.00,025.9,025.0,000.0,034.4,027.7,013.9,0000.0,0007.42,0002.88,0001.88
2024-04-17 07:17:00,SystemResetWarning,0825.5,5.00,000.00,025.9,025.0,000.0,034.4,027.7,013.9,0000.0,0007.68,0002.92,0001.88
2024-04-17 07:18:00,SystemResetWarning,0825.5,5.00,000.00,025.9,025.0,000.0,034.4,027.7,013.9,0000.0,0007.67,0002.96,0001.89
2024-04-17 07:19:00,SystemResetWarning,0825.6,5.00,000.00,025.9,024.9,000.0,034.4,027.7,013.9,0000.0,0007.56,0003.03,0001.90
2024-04-17 07:20:00,SystemResetWarning,0825.6,4.99,000.00,025.9,024.9,000.0,034.4,027.7,014.1,0000.0,0006.82,0002.99,0001.89
2024-04-17 07:21:00,SystemResetWarning,0825.6,5.00,000.00,025.9,024.9,000.0,034.4,027.7,014.2,0000.0,0006.72,0002.97,0001.89
2024-04-17 07:22:00,SystemResetWarning,0825.5,5.00,000.00,025.9,024.9,000.0,034.4,027.6,014.1,0000.0,0006.70,0003.03,0001.91
2024-04-17 07:23:00,SystemResetWarning,0825.5,5.00,000.00,025.9,024.9,000.0,034.4,027.6,014.1,0000.0,0006.58,0003.05,0001.90
2024-04-17 07:24:00,SystemResetWarning,0825.5,5.00,000.00,025.9,024.9,000.0,034.4,027.6,014.1,0000.0,0006.63,0003.07,0001.92
2024-04-17 07:25:00,SystemResetWarning,0825.5,5.00,000.00,025.8,024.9,000.0,034.4,027.6,014.1,0000.0,0006.70,0003.11,0001.93
2024-04-17 07:26:00,SystemResetWarning,0825.5,5.00,000.00,025.8,024.9,000.0,034.4,027.6,014.2,0000.0,0006.50,0003.09,0001.92
2024-04-17 07:27:00,SystemResetWarning,0825.5,5.00,000.00,025.8,024.9,000.0,034.4,027.6,014.2,0000.0,0006.35,0003.09,0001.94
2024-04-17 07:28:00,SystemResetWarning,0825.4,4.99,000.00,025.8,024.9,000.0,034.3,027.6,014.1,0000.0,0005.88,0003.06,0001.94
2024-04-17 07:29:00,SystemResetWarning,0825.4,4.99,000.00,025.8,024.9,000.0,034.3,027.6,013.7,0000.0,0006.03,0003.10,0001.94
2024-04-17 07:30:00,SystemResetWarning,0825.5,5.00,000.00,025.8,024.9,000.0,034.3,027.6,013.7,0000.0,0005.92,0003.10,0001.94
2024-04-17 07:31:00,SystemResetWarning,0825.5,5.00,000.00,025.8,024.9,000.0,034.3,027.6,013.8,0000.0,0005.81,0003.11,0001.93
2024-04-17 07:32:00,SystemResetWarning,0825.5,5.00,000.00,025.8,024.9,000.0,034.3,027.6,013.9,0000.0,0006.29,0003.12,0001.92
2024-04-17 07:33:00,SystemResetWarning,0825.6,5.01,000.00,025.8,024.9,000.0,034.3,027.6,013.7,0000.0,0006.46,0003.06,0001.92
2024-04-17 07:34:00,SystemResetWarning,0825.5,4.99,000.00,025.8,024.9,000.0,034.3,027.6,013.8,0000.0,0006.54,0003.05,0001.93
2024-04-17 07:35:00,SystemResetWarning,0825.6,4.99,000.00,025.8,024.9,000.0,034.3,027.5,013.7,0000.0,0006.65,0003.04,0001.93
2024-04-17 07:36:00,SystemResetWarning,0825.6,4.99,000.00,025.8,024.8,000.0,034.3,027.5,013.7,0000.0,0006.50,0003.00,0001.93
2024-04-17 07:37:00,SystemResetWarning,0825.6,5.00,000.00,025.8,024.8,000.0,034.3,027.6,013.7,0000.0,0006.52,0003.00,0001.93
2024-04-17 07:38:00,SystemResetWarning,0825.6,5.01,000.00,025.8,024.8,000.0,034.3,027.5,013.8,0000.0,0006.34,0002.95,0001.91
2024-04-17 07:39:00,SystemResetWarning,0825.7,5.01,000.00,025.8,024.8,000.0,034.3,027.6,013.7,0000.0,0006.32,0002.95,0001.91
2024-04-17 07:40:00,SystemResetWarning,0825.6,4.99,000.00,025.8,024.9,000.0,034.3,027.6,013.8,0000.0,0006.17,0002.91,0001.91
2024-04-17 07:41:00,SystemResetWarning,0825.7,4.99,000.00,025.8,024.9,000.0,034.3,027.6,013.9,0000.0,0005.89,0002.85,0001.89
2024-04-17 07:42:00,SystemResetWarning,0825.6,5.00,000.00,025.8,024.9,000.0,034.3,027.6,014.0,0000.0,0005.60,0002.77,0001.88
2024-04-17 07:43:00,SystemResetWarning,0825.6,5.01,000.00,025.8,024.9,000.0,034.3,027.6,014.0,0000.0,0005.49,0002.85,0001.89
2024-04-17 07:44:00,SystemResetWarning,0825.7,5.01,000.00,025.8,024.9,000.0,034.3,027.6,014.0,0000.0,0005.96,0002.83,0001.87
2024-04-17 07:45:00,SystemResetWarning,0825.7,4.99,000.00,025.8,024.9,000.0,034.3,027.6,014.0,0000.0,0006.80,0002.79,0001.85
2024-04-17 07:46:00,SystemResetWarning,0825.7,4.99,000.00,025.8,024.9,000.0,034.3,027.6,014.0,0000.0,0006.58,0002.71,0001.84
2024-04-17 07:47:00,SystemResetWarning,0825.7,4.99,000.00,025.8,024.9,000.0,034.3,027.6,013.9,0000.0,0006.71,0002.68,0001.83
2024-04-17 07:48:00,SystemResetWarning,0825.7,5.00,000.00,025.8,024.9,000.0,034.3,027.6,014.0,0000.0,0006.87,0002.71,0001.83
2024-04-17 07:49:00,SystemResetWarning,0825.6,5.00,000.00,025.8,024.9,000.0,034.3,027.6,014.0,0000.0,0007.08,0002.74,0001.81
2024-04-17 07:50:00,SystemResetWarning,0825.7,5.01,000.00,025.8,024.9,000.0,034.3,027.6,013.8,0000.0,0007.32,0002.78,0001.81
2024-04-17 07:51:00,SystemResetWarning,0825.7,4.99,000.00,025.8,024.9,000.0,034.3,027.6,013.8,0000.0,0007.34,0002.76,0001.79
2024-04-17 07:52:00,SystemResetWarning,0825.7,4.99,000.00,025.8,024.9,000.0,034.3,027.6,013.9,0000.0,0007.32,0002.77,0001.80
2024-04-17 07:53:00,SystemResetWarning,0825.6,5.00,000.00,025.8,025.0,000.0,034.3,027.6,013.9,0000.0,0007.39,0002.80,0001.81
2024-04-17 07:54:00,SystemResetWarning,0825.6,5.00,000.00,025.8,025.0,000.0,034.3,027.6,013.8,0000.0,0007.20,0002.69,0001.80
2024-04-17 07:55:00,SystemResetWarning,0825.6,5.00,000.00,025.8,025.0,000.0,034.3,027.6,013.8,0000.0,0006.61,0002.74,0001.80
2024-04-17 07:56:00,SystemResetWarning,0825.6,5.01,000.00,025.8,025.0,000.0,034.3,027.6,013.8,0000.0,0005.67,0002.82,0001.81
2024-04-17 07:57:00,SystemResetWarning,0825.6,5.00,000.00,025.8,025.0,000.0,034.3,027.6,013.7,0000.0,0005.54,0002.87,0001.81
2024-04-17 07:58:00,SystemResetWarning,0825.6,5.00,000.00,025.8,025.1,000.0,034.3,027.7,013.7,0000.0,0005.63,0002.90,0001.81
2024-04-17 07:59:00,SystemResetWarning,0825.7,5.00,000.00,025.8,025.1,000.0,034.3,027.7,013.7,0000.0,0005.47,0002.89,0001.81
